Location: Newark
(22.3060°N, 114.2134°E)
Time: 16:58:31
(UTC+00:00)

Courier 1B Rocket - All Passes

Search period start: 28 July 2021 00:00
Search period end: 07 August 2021 00:00
Orbit: 920 x 1202 km, 28.2° (Epoch: 27 July)

Date Brightness Start Highest point End Pass type
(mag) Time Alt. Az. Time Alt. Az. Time Alt. Az.
28 Jul - 00:08:34 10° WNW 00:14:51 86° NNE 00:21:26 10° ESE daylight
28 Jul - 02:02:23 10° W 02:08:11 36° SSW 02:14:20 10° SE daylight
28 Jul - 15:35:01 10° S 15:39:18 17° SSE 15:43:26 10° ESE night (unlit)
28 Jul - 17:25:59 10° SW 17:32:36 53° SSE 17:38:48 10° E visible
28 Jul - 19:19:34 10° W 19:26:04 68° NNW 19:32:18 10° ENE visible
28 Jul - 21:13:51 10° WNW 21:19:56 49° N 21:25:58 10° ENE visible
28 Jul - 23:07:34 10° WNW 23:13:46 69° NNE 23:20:09 10° E daylight
29 Jul - 01:01:07 10° W 01:07:11 51° SSW 01:13:35 10° SE daylight
29 Jul - 02:56:43 10° WSW 03:00:25 15° SSW 03:04:14 10° S daylight
29 Jul - 14:36:36 10° SSE 14:38:11 11° SSE 14:39:44 10° SE night (unlit)
29 Jul - 16:25:09 10° SW 16:31:34 38° SSE 16:37:34 10° E night (unlit)
29 Jul - 18:18:12 10° WSW 18:24:58 84° NNW 18:31:20 10° ENE visible
29 Jul - 20:12:29 10° W 20:18:44 51° N 20:24:47 10° ENE visible
29 Jul - 22:06:30 10° WNW 22:12:40 57° N 22:18:50 10° E daylight
30 Jul - 00:00:00 10° WNW 00:06:11 70° SSW 00:12:37 10° ESE daylight
30 Jul - 01:54:30 10° W 01:59:23 23° SSW 02:04:30 10° SSE daylight
30 Jul - 15:24:36 10° SSW 15:30:30 27° SSE 15:36:03 10° E night (unlit)
30 Jul - 17:16:55 10° WSW 17:23:52 75° SSE 17:30:20 10° ENE visible
30 Jul - 19:11:03 10° W 19:17:32 57° N 19:23:43 10° ENE visible
30 Jul - 21:05:19 10° WNW 21:11:29 51° N 21:17:32 10° E visible
30 Jul - 22:58:56 10° WNW 23:05:11 88° NNE 23:11:33 10° ESE daylight
31 Jul - 00:52:52 10° W 00:58:26 34° SSW 01:04:13 10° SE daylight
31 Jul - 14:24:31 10° S 14:29:23 19° SSE 14:34:01 10° ESE night (unlit)
31 Jul - 16:15:47 10° SW 16:22:46 56° SSE 16:29:16 10° E night (unlit)
31 Jul - 18:09:33 10° W 18:16:21 67° NNW 18:22:44 10° ENE visible
31 Jul - 20:04:00 10° WNW 20:10:17 49° N 20:16:20 10° ENE visible
31 Jul - 21:57:51 10° WNW 22:04:08 70° NNE 22:10:22 10° E daylight
31 Jul - 23:51:31 10° W 23:57:29 49° SSW 00:03:36 10° SE daylight
01 Aug - 01:47:27 10° WSW 01:50:37 14° SSW 01:53:51 10° S daylight
01 Aug - 13:25:31 10° S 13:28:12 12° SSE 13:30:50 10° SE night (unlit)
01 Aug - 15:14:51 10° SW 15:21:40 40° SSE 15:28:02 10° E night (unlit)
01 Aug - 17:08:05 10° WSW 17:15:11 83° NNW 17:21:46 10° ENE visible
01 Aug - 19:02:32 10° W 19:09:03 51° N 19:15:12 10° ENE visible
01 Aug - 20:56:42 10° WNW 21:03:01 58° N 21:09:09 10° E visible
01 Aug - 22:50:20 10° WNW 22:56:32 69° SSW 23:02:47 10° ESE daylight
02 Aug - 00:45:01 10° WSW 00:49:39 22° SSW 00:54:24 10° SSE daylight
02 Aug - 14:14:14 10° SSW 14:20:32 29° SSE 14:26:29 10° E night (unlit)
02 Aug - 16:06:43 10° WSW 16:14:00 77° SSE 16:20:46 10° ENE night (unlit)
02 Aug - 18:00:59 10° W 18:07:48 57° N 18:14:10 10° ENE visible
02 Aug - 19:55:25 10° WNW 20:01:49 52° N 20:07:56 10° E visible
02 Aug - 21:49:11 10° WNW 21:55:33 89° NNE 22:01:48 10° ESE daylight
02 Aug - 23:43:16 10° W 23:48:44 32° SSW 23:54:16 10° SSE daylight
03 Aug - 13:14:03 10° SSW 13:19:21 20° SSE 13:24:28 10° ESE visible
03 Aug - 15:05:30 10° SW 15:12:50 58° SSE 15:19:40 10° ENE night (unlit)
03 Aug - 16:59:23 10° W 17:06:32 68° NNW 17:13:10 10° ENE visible
03 Aug - 18:53:59 10° WNW 19:00:34 51° N 19:06:46 10° ENE visible
03 Aug - 20:48:00 10° WNW 20:54:29 71° NNE 21:00:43 10° E visible
03 Aug - 22:41:50 10° W 22:47:49 47° SSW 22:53:47 10° SE daylight
04 Aug - 00:38:09 10° WSW 00:40:52 13° SSW 00:43:37 10° S daylight
04 Aug - 12:14:48 10° S 12:18:09 13° SSE 12:21:26 10° ESE visible
04 Aug - 14:04:31 10° SW 14:11:39 43° SSE 14:18:22 10° E visible
04 Aug - 15:57:50 10° WSW 16:05:17 83° NNW 16:12:10 10° ENE night (unlit)
04 Aug - 17:52:25 10° W 17:59:16 53° N 18:05:40 10° ENE visible
04 Aug - 19:46:44 10° WNW 19:53:20 60° N 19:59:34 10° E visible
04 Aug - 21:40:32 10° WNW 21:46:53 67° SSW 21:53:04 10° ESE daylight
04 Aug - 23:35:26 10° WSW 23:39:57 21° SSW 23:44:28 10° SSE daylight
05 Aug - 13:03:51 10° SSW 13:10:27 31° SSE 13:16:47 10° E visible
05 Aug - 14:56:25 10° WSW 15:04:01 79° SSE 15:11:07 10° ENE night (unlit)
05 Aug - 16:50:47 10° W 16:57:57 58° N 17:04:36 10° ENE night (unlit)
05 Aug - 18:45:20 10° WNW 18:52:05 54° N 18:58:23 10° E visible
05 Aug - 20:39:16 10° WNW 20:45:53 89° SSW 20:52:10 10° ESE visible
05 Aug - 22:33:33 10° W 22:39:03 31° SSW 22:44:29 10° SSE daylight
06 Aug - 12:03:39 10° SSW 12:09:14 21° SSE 12:14:43 10° ESE visible
06 Aug - 13:55:11 10° SW 14:02:47 60° SSE 14:09:57 10° ENE visible
06 Aug - 15:49:07 10° W 15:56:36 68° NNW 16:03:34 10° ENE night (unlit)
06 Aug - 17:43:49 10° WNW 17:50:46 52° N 17:57:14 10° ENE visible
06 Aug - 19:38:00 10° WNW 19:44:47 73° NNE 19:51:08 10° E visible
06 Aug - 21:32:00 10° W 21:38:09 46° SSW 21:44:06 10° SE visible
06 Aug - 23:28:40 10° SW 23:31:08 12° SSW 23:33:36 10° S daylight
